Flag for Nigeria Weather past 2 weeks in Kano, Nigeria

Now
75 °F

Drizzle. More clouds than sun.


Feels Like: 74 °F
Forecast: 75 / 92 °F
Wind: No wind

Location: Douala Obs.

Current Time: Jul 26, 2014 at 2:55:28 PM

Latest Report: Jul 26, 2014 at 2:00 PM


Visibility: 1 mi

Pressure: 29.98 "Hg

Humidity: 94%

Dew point: 73 °F

Location of KanoLocation

Historic Weather in Kano — Graph

°F

Kano temperature yesterday

Maximum temperature yesterday: 75 °F (at 10:00 AM)
Minimum temperature yesterday: 73 °F (at 12:00 AM)
Average temperature yesterday: 74 °F

Past Weeks' High & Low Weather Summary

 TemperatureHumidityPressure
High84 °F (Jul 11, 3:00 PM)100% (Jul 12, 8:00 AM)30.04 "Hg (Jul 12, 8:00 AM)
Low72 °F (Jul 15, 11:00 AM)70% (Jul 12, 4:00 PM)29.86 "Hg (Jul 14, 6:00 PM)
Average77 °F91%29.97 "Hg
* Reported Jul 11 1:00 PM — Jul 26 1:00 PM, Kano, Weather by CustomWeather, © 2014

Note: Actual official high and low records may vary slightly from our data, if they occured in-between our weather recording intervals... More about our weather records

Advertising

Kano weather history for previous 24 hours

 ConditionsComfort  
Time TempWeatherWind HumidityBarometerVisibility
1:00 PM
Jul 26
75 °FDrizzle. More clouds than sun.No wind94%29.98 "Hg1 mi
12:00 PM75 °FDrizzle. Fog.No wind94%29.98 "Hg2 mi
11:00 AM75 °FDrizzle. Fog.No wind94%30.01 "Hg1 mi
10:00 AM75 °FDrizzle. Fog.No wind94%30.01 "Hg1 mi
9:00 AM73 °FDrizzle. More clouds than sun.No wind100%29.98 "Hg1 mi
8:00 AM73 °FDrizzle. Fog.No wind100%29.98 "Hg1 mi
7:00 AM73 °FDrizzle. Fog.No wind100%29.95 "Hg1 mi
6:00 AM73 °FPartly cloudy.No wind100%29.95 "Hg1 mi
5:00 AM73 °FDrizzle. Mostly cloudy.No wind100%29.95 "Hg1 mi
4:00 AM73 °FDrizzle. Mostly cloudy.No wind100%29.95 "Hg2 mi
3:00 AM73 °FMostly cloudy.No wind100%29.95 "Hg4 mi
2:00 AM73 °FDrizzle. Mostly cloudy.No wind100%29.95 "Hg3 mi
1:00 AM73 °FDrizzle. Mostly cloudy.No wind100%29.98 "Hg2 mi
12:00 AM73 °FDrizzle. Mostly cloudy.No wind100%29.98 "Hg2 mi
11:00 PM
Jul 25
73 °FDrizzle. Mostly cloudy.No wind100%30.01 "Hg2 mi
10:00 PM73 °FDrizzle. Mostly cloudy.No wind100%29.98 "Hg2 mi
9:00 PM75 °FDrizzle. Mostly cloudy.No wind94%29.98 "Hg4 mi
8:00 PM75 °FDrizzle. Mostly cloudy.No wind94%29.95 "Hg4 mi
7:00 PM75 °FDrizzle. Mostly cloudy.No wind94%29.95 "Hg4 mi
6:00 PM75 °FDrizzle. More clouds than sun.No wind94%29.95 "Hg2 mi
5:00 PM75 °FDrizzle. More clouds than sun.No wind94%29.95 "Hg2 mi
4:00 PM75 °FDrizzle. More clouds than sun.No wind94%29.95 "Hg2 mi
3:00 PM75 °FDrizzle. More clouds than sun.No wind94%29.98 "Hg4 mi
2:00 PM75 °FDrizzle. More clouds than sun.No wind94%29.98 "Hg2 mi
Weather by CustomWeather, © 2014

See weather overviewHow to use our weather pages